Change the Weather History Date:

Sunday, July 7, 2013

  Actual Average (PASK) Record (PASK)
Temperature  
Mean Temperature 54 °F -  
Max Temperature 60 °F 60 °F 82 °F (2014)
Min Temperature 48 °F 49 °F 44 °F (2002)
Degree Days  
Heating Degree Days 11    
Growing Degree Days 4 (Base 50)    
Moisture  
Dew Point 48 °F    
Average Humidity 83    
Maximum Humidity 94    
Minimum Humidity 72    
Precipitation  
Precipitation 0.00 in - - ()
Sea Level Pressure  
Sea Level Pressure 29.69 in    
Wind  
Wind Speed 7 mph (NW)    
Max Wind Speed 16 mph    
Max Gust Speed 22 mph    
Visibility 10 miles    
Events      
Averages and records for this station are not official NWS values.
T = Trace of Precipitation, MM = Missing Value Source: NWS Daily Summary

Daily Weather History Graph

Daily Weather History Graph

Search for Another Location

Airport or City:

Trip Planner

Search our weather history database for the weather conditions in past years. The results will help you decide how hot, cold, wet, or windy it might be!

Date:

Astronomy

Jul. 07, 2013 Rise Set
Actual Time 3:46 AM AKDT 1:48 AM AKDT
Civil Twilight Sun does not rise Sun does not rise
Nautical Twilight Sun does not rise Sun does not rise
Astronomical Twilight Sun does not rise Sun does not rise
Moon 4:47 AM AKDT (7/7) 11:53 PM AKDT (7/7)
Length of Visible Light 24h 00m
Length of Day
22h 02m
Waning Crescent, 0% of the Moon is Illuminated
Jul 7
Waning Crescent
Jul 7
New
Jul 15
First Quarter
Jul 22
Full
Jul 29
Last Quarter

Hourly Weather History & Observations

Time (AKDT) Temp. Dew Point Humidity Pressure Visibility Wind Dir Wind Speed Gust Speed Precip Events Conditions
12:16 AM 55.4 °F 51.8 °F 88% 29.72 in 10.0 mi ESE 5.8 mph - N/A   Overcast
12:36 AM 53.6 °F 51.8 °F 94% 29.72 in 10.0 mi ESE 5.8 mph - N/A   Overcast
12:56 AM 53.6 °F 50.0 °F 88% 29.72 in 10.0 mi SE 4.6 mph - N/A   Overcast
1:16 AM 53.6 °F 50.0 °F 88% 29.72 in 10.0 mi SE 4.6 mph - N/A   Overcast
1:36 AM 53.6 °F 50.0 °F 88% 29.72 in 10.0 mi ESE 4.6 mph - N/A   Overcast
1:56 AM 53.6 °F 50.0 °F 88% 29.73 in 10.0 mi SE 3.5 mph - N/A   Overcast
2:16 AM 51.8 °F 48.2 °F 88% 29.73 in 10.0 mi ESE 4.6 mph - N/A   Overcast
2:36 AM 51.8 °F 48.2 °F 88% 29.72 in 10.0 mi ESE 5.8 mph - N/A   Overcast
2:56 AM 51.8 °F 48.2 °F 88% 29.72 in 10.0 mi ESE 5.8 mph - N/A   Overcast
3:16 AM 51.8 °F 48.2 °F 88% 29.72 in 10.0 mi East 4.6 mph - N/A   Overcast
3:36 AM 51.8 °F 48.2 °F 88% 29.72 in 10.0 mi ESE 6.9 mph - N/A   Overcast
3:56 AM 51.8 °F 48.2 °F 88% 29.72 in 5.0 mi ESE 4.6 mph - N/A   Overcast
4:16 AM 51.8 °F 48.2 °F 88% 29.72 in 10.0 mi ESE 4.6 mph - N/A   Overcast
4:36 AM 50.0 °F 46.4 °F 87% 29.72 in 10.0 mi ESE 3.5 mph - N/A   Overcast
4:56 AM 50.0 °F 46.4 °F 87% 29.72 in 10.0 mi ESE 4.6 mph - N/A   Overcast
5:16 AM 50.0 °F 46.4 °F 87% 29.72 in 10.0 mi Calm Calm - N/A   Overcast
5:36 AM 50.0 °F 46.4 °F 87% 29.72 in 10.0 mi South 3.5 mph - N/A   Overcast
5:56 AM 50.0 °F 46.4 °F 87% 29.71 in 10.0 mi SE 4.6 mph - N/A   Mostly Cloudy
6:16 AM 50.0 °F 46.4 °F 87% 29.72 in 10.0 mi SSE 3.5 mph - N/A   Partly Cloudy
6:36 AM 48.2 °F 46.4 °F 93% 29.71 in 10.0 mi SSE 3.5 mph - N/A   Mostly Cloudy
6:56 AM 48.2 °F 46.4 °F 93% 29.71 in 10.0 mi SSE 3.5 mph - N/A   Partly Cloudy
7:16 AM 50.0 °F 46.4 °F 87% 29.71 in 10.0 mi SSE 4.6 mph - N/A   Clear
7:36 AM 50.0 °F 46.4 °F 87% 29.71 in 10.0 mi SSE 3.5 mph - N/A   Scattered Clouds
7:56 AM 51.8 °F 46.4 °F 82% 29.71 in 10.0 mi SSE 3.5 mph - N/A   Mostly Cloudy
8:16 AM 51.8 °F 46.4 °F 82% 29.71 in 10.0 mi South 3.5 mph - N/A   Overcast
8:36 AM 51.8 °F 46.4 °F 82% 29.71 in 10.0 mi Calm Calm - N/A   Overcast
8:56 AM 51.8 °F 48.2 °F 88% 29.71 in 10.0 mi Calm Calm - N/A   Mostly Cloudy
9:16 AM 53.6 °F 48.2 °F 82% 29.71 in 10.0 mi Calm Calm - N/A   Scattered Clouds
9:36 AM 53.6 °F 48.2 °F 82% 29.71 in 10.0 mi Calm Calm - N/A   Mostly Cloudy
9:56 AM 53.6 °F 48.2 °F 82% 29.70 in 10.0 mi Calm Calm - N/A   Mostly Cloudy
10:16 AM 53.6 °F 48.2 °F 82% 29.70 in 10.0 mi Calm Calm - N/A   Mostly Cloudy
10:36 AM 53.6 °F 48.2 °F 82% 29.70 in 10.0 mi WNW 3.5 mph - N/A   Scattered Clouds
10:56 AM 55.4 °F 50.0 °F 82% 29.70 in 10.0 mi North 3.5 mph - N/A   Partly Cloudy
11:16 AM 55.4 °F 50.0 °F 82% 29.70 in 10.0 mi North 4.6 mph - N/A   Clear
11:36 AM 57.2 °F 48.2 °F 72% 29.70 in 10.0 mi Calm Calm - N/A   Clear
11:56 AM 57.2 °F 50.0 °F 77% 29.69 in 10.0 mi NW 5.8 mph - N/A   Mostly Cloudy
12:16 PM 57.2 °F 48.2 °F 72% 29.69 in 10.0 mi NW 6.9 mph - N/A   Overcast
12:36 PM 60.8 °F 51.8 °F 72% 29.69 in 10.0 mi WNW 11.5 mph - N/A   Mostly Cloudy
12:56 PM 57.2 °F 51.8 °F 82% 29.69 in 10.0 mi NW 6.9 mph - N/A   Mostly Cloudy
1:16 PM 59.0 °F 51.8 °F 77% 29.69 in 10.0 mi WNW 11.5 mph - N/A   Overcast
1:36 PM 57.2 °F 51.8 °F 82% 29.69 in 10.0 mi WNW 10.4 mph - N/A   Mostly Cloudy
1:56 PM 57.2 °F 50.0 °F 77% 29.69 in 10.0 mi WNW 11.5 mph - N/A   Mostly Cloudy
2:16 PM 57.2 °F 51.8 °F 82% 29.69 in 10.0 mi WNW 11.5 mph 16.1 mph N/A   Partly Cloudy
2:36 PM 55.4 °F 48.2 °F 77% 29.69 in 10.0 mi WNW 13.8 mph - N/A   Clear
2:56 PM 55.4 °F 50.0 °F 82% 29.68 in 10.0 mi WNW 12.7 mph - N/A   Clear
3:16 PM 55.4 °F 50.0 °F 82% 29.68 in 10.0 mi WNW 12.7 mph - N/A   Clear
3:36 PM 57.2 °F 50.0 °F 77% 29.67 in 10.0 mi NW 12.7 mph - N/A   Scattered Clouds
3:56 PM 57.2 °F 50.0 °F 77% 29.67 in 10.0 mi NW 12.7 mph - N/A   Overcast
4:16 PM 57.2 °F 50.0 °F 77% 29.67 in 10.0 mi NW 13.8 mph - N/A   Mostly Cloudy
4:36 PM 57.2 °F 50.0 °F 77% 29.66 in 10.0 mi WNW 16.1 mph 20.7 mph N/A   Scattered Clouds
4:56 PM 57.2 °F 48.2 °F 72% 29.66 in 10.0 mi WNW 15.0 mph - N/A   Clear
5:16 PM 57.2 °F 48.2 °F 72% 29.66 in 10.0 mi WNW 15.0 mph - N/A   Scattered Clouds
5:36 PM 55.4 °F 48.2 °F 77% 29.66 in 10.0 mi WNW 15.0 mph 20.7 mph N/A   Mostly Cloudy
5:56 PM 55.4 °F 48.2 °F 77% 29.66 in 10.0 mi WNW 13.8 mph 18.4 mph N/A   Mostly Cloudy
6:16 PM 55.4 °F 48.2 °F 77% 29.66 in 10.0 mi NW 15.0 mph 19.6 mph N/A   Overcast
6:36 PM 55.4 °F 48.2 °F 77% 29.66 in 10.0 mi WNW 16.1 mph 21.9 mph N/A   Overcast
6:56 PM 53.6 °F 48.2 °F 82% 29.66 in 10.0 mi WNW 13.8 mph 21.9 mph N/A   Overcast
7:16 PM 53.6 °F 48.2 °F 82% 29.66 in 10.0 mi NW 13.8 mph 18.4 mph N/A   Overcast
7:36 PM 53.6 °F 48.2 °F 82% 29.66 in 10.0 mi NW 13.8 mph 17.3 mph N/A   Mostly Cloudy
7:56 PM 53.6 °F 48.2 °F 82% 29.66 in 10.0 mi NW 12.7 mph 19.6 mph N/A   Partly Cloudy
8:16 PM 53.6 °F 48.2 °F 82% 29.66 in 10.0 mi WNW 15.0 mph 18.4 mph N/A   Partly Cloudy
8:36 PM 53.6 °F 48.2 °F 82% 29.66 in 10.0 mi NW 11.5 mph - N/A   Mostly Cloudy
8:56 PM 53.6 °F 48.2 °F 82% 29.66 in 10.0 mi NW 9.2 mph - N/A   Partly Cloudy
9:16 PM 53.6 °F 48.2 °F 82% 29.66 in 10.0 mi NNW 12.7 mph - N/A   Clear
9:36 PM 53.6 °F 46.4 °F 77% 29.66 in 10.0 mi WNW 13.8 mph - N/A   Scattered Clouds
9:56 PM 53.6 °F 48.2 °F 82% 29.66 in 10.0 mi NW 13.8 mph - N/A   Scattered Clouds
10:16 PM 53.6 °F 48.2 °F 82% 29.66 in 10.0 mi WNW 10.4 mph - N/A   Clear
10:36 PM 53.6 °F 48.2 °F 82% 29.66 in 10.0 mi WNW 10.4 mph - N/A   Clear
10:56 PM 51.8 °F 46.4 °F 82% 29.66 in 10.0 mi NW 11.5 mph - N/A   Partly Cloudy
11:16 PM 51.8 °F 46.4 °F 82% 29.66 in 10.0 mi NW 13.8 mph - N/A   Mostly Cloudy
11:36 PM 50.0 °F 46.4 °F 87% 29.66 in 10.0 mi NNW 11.5 mph 18.4 mph N/A   Overcast
11:56 PM 50.0 °F 46.4 °F 87% 29.66 in 10.0 mi NW 16.1 mph - N/A   Overcast